Content
SEND FEEDBACK

Daily
Averages
Monthly
Summary
United States of America

MATHER, WISCONSIN


Home > North America > United States > Wisconsin
Elevation: 984 feet     Latitude: 44 10N     Longitude: 090 22W

WEATHER
 
SELECT A DAY
Number of Records: 125,281;   Date Range: 1/2/05 - 9/18/14
 
SHARE

PRINT THIS DATA

[ ← Previous Day ]
WEATHER ALMANAC - JANUARY 23, 2013
[ Next Day → ]
[ °C ]   °F
Weather ElementAverageHighLow
Temperature10.7 °F17.6 °F (12:55 pm)-2.2 °F (10:55 pm)
Dewpoint3.7 °F12.2 °F (2:08 pm)-11.2 °F (10:55 pm)
Humidity73.8 %86 % (4:26 pm)61 % (8:55 pm)
Barometer30.21 in30.54 in (11:55 pm)30.05 in (1:34 pm)
Wind Speed9.3 mph19.6 mph (4:34 pm)
Wind Gust31.1 mph (4:34 pm)
Weather ElementAverage
Visibility7.1 mi
Wind DirectionSSW (215.2 °)

Weather ElementTotal
Precipitation---
Heating Degree Days57.3 (Base 65)
Averaged from 44 records on January 23, 2013
WEATHER CONDITIONS BREAKOUT
WIND DIRECTION BREAKOUT
WEATHER BY HOUR - JANUARY 23, 2013
[ °C ]   °F
Local TimeTemperatureDewpointHumidityBarometerVisibilityWind DirectionWind SpeedGust SpeedPrecipitationEventsConditions
1:55 AM4.5 °F-2.9 °F72 %30.30 in10.0 miCalmOvercast
2:55 AM5.9 °F-2.4 °F69 %30.29 in10.0 miSSW (210°)3.5 mphOvercast
3:55 AM7.3 °F-1.8 °F66 %30.27 in10.0 miWSW (240°)4.6 mphPartly Cloudy
4:55 AM8.2 °F-1.7 °F64 %30.25 in10.0 miCalmOvercast
5:10 AM8.6 °F-0.4 °F67 %30.25 in10.0 miSSW (210°)3.5 mphSnowLight Snow
5:35 AM8.6 °F-0.4 °F67 %30.24 in9.0 miCalmSnowLight Snow
5:45 AM8.6 °F1.4 °F73 %30.24 in6.0 miCalmSnowLight Snow
5:55 AM8.2 °F2.1 °F76 %30.24 in5.0 miSSW (200°)3.5 mph0.00 inSnowLight Snow
6:28 AM8.6 °F3.2 °F79 %30.23 in4.0 miSW (220°)4.6 mphSnowLight Snow
6:45 AM8.6 °F3.2 °F79 %30.23 in10.0 miCalmSnowLight Snow
6:46 AM8.6 °F3.2 °F79 %30.23 in10.0 miCalmSnowLight Snow
6:47 AM8.6 °F3.2 °F79 %30.23 in10.0 miCalmSnowLight Snow
6:55 AM8.6 °F3.2 °F79 %30.22 in4.0 miCalmSnowLight Snow
7:55 AM8.6 °F3.2 °F79 %30.22 in10.0 miSSW (200°)3.5 mphOvercast
7:59 AM8.6 °F3.2 °F79 %30.22 in10.0 miSSW (210°)5.8 mphOvercast
8:55 AM10.4 °F5.0 °F79 %30.22 in4.0 miCalmSnowLight Snow
9:55 AM12.2 °F6.8 °F79 %30.21 in5.0 miCalmSnowLight Snow
10:55 AM14.0 °F6.8 °F73 %30.19 in10.0 miSW (220°)8.1 mphOvercast
11:30 AM14.0 °F8.6 °F79 %30.10 in2.0 miWSW (240°)10.4 mphSnowLight Snow
11:55 AM15.8 °F10.4 °F79 %30.16 in2.0 miSW (230°)6.9 mphSnowLight Snow
12:06 PM15.8 °F10.4 °F79 %30.09 in3.0 miWSW (240°)6.9 mphSnowLight Snow
12:55 PM17.6 °F10.4 °F73 %30.12 in6.0 miWest (270°)12.7 mphSnowLight Snow
1:34 PM15.8 °F10.4 °F79 %30.05 in3.0 miWest (270°)13.8 mphSnowLight Snow
1:55 PM15.8 °F10.4 °F79 %30.12 in2.5 miWest (280°)11.5 mphSnowLight Snow
2:08 PM17.6 °F12.2 °F79 %30.11 in3.0 miWNW (290°)11.5 mphSnowLight Snow
2:24 PM17.6 °F12.2 °F79 %30.05 in1.2 miWNW (290°)13.8 mphSnowLight Snow
2:41 PM17.6 °F12.2 °F79 %30.05 in4.0 miWest (270°)12.7 mph21.9 mphSnowLight Snow
2:55 PM17.6 °F10.4 °F73 %30.12 in7.0 miWNW (290°)17.3 mph23.0 mphSnowLight Snow
3:55 PM15.8 °F6.8 °F68 %30.15 in7.0 miWNW (300°)18.4 mph25.3 mphSnowLight Snow
4:02 PM15.8 °F8.6 °F73 %30.10 in2.0 miNW (310°)17.3 mph25.3 mphSnowLight Snow
4:26 PM14.0 °F10.4 °F86 %30.11 in4.0 miWNW (300°)13.8 mphSnowLight Snow
4:34 PM14.0 °F8.6 °F79 %30.10 in2.0 miNW (310°)19.6 mph31.1 mphSnowLight Snow
4:43 PM14.0 °F6.8 °F73 %30.11 in10.0 miNW (310°)16.1 mph31.1 mphSnowLow Drifting Snow
4:50 PM14.0 °F5.0 °F67 %30.12 in10.0 miNW (310°)15.0 mphMostly Cloudy
4:55 PM12.2 °F5.0 °F73 %30.19 in10.0 miNW (320°)19.6 mph26.5 mphMostly Cloudy
5:21 PM12.2 °F5.0 °F73 %30.16 in5.0 miNNW (330°)18.4 mph25.3 mphSnowLight Snow
5:33 PM12.2 °F5.0 °F73 %30.16 in10.0 miNW (320°)13.8 mphSnowLow Drifting Snow
5:55 PM10.4 °F5.0 °F79 %30.25 in10.0 miNW (320°)17.3 mph25.3 mphSnowLow Drifting Snow
6:55 PM8.6 °F-0.4 °F67 %30.32 in10.0 miNW (320°)16.1 mphSnowLow Drifting Snow
7:55 PM5.0 °F-4.0 °F66 %30.38 in10.0 miNNW (340°)19.6 mph28.8 mphScattered Clouds
8:55 PM3.2 °F-7.6 °F61 %30.43 in10.0 miNNW (330°)16.1 mphScattered Clouds
9:55 PM1.4 °F-9.4 °F61 %30.48 in10.0 miNNW (330°)13.8 mph21.9 mphClear
10:55 PM-2.2 °F-11.2 °F66 %30.50 in10.0 miNNW (330°)12.7 mphClear
11:55 PM-2.2 °F-11.2 °F66 %30.54 in10.0 miNW (310°)8.1 mphClear
Hourly data recorded from KVOK, located miles away from Mather, Wisconsin







STORIES FROM OUR PARTNERS